Regional Weather Roundup
Issued by NWS Nashville, TN

Home | Current Version | Previous Version | Text Only | Print | Product List | Glossary On
Versions: 1 2 3 4 5 6 7 8 9 10 11 12 13 14 15 16 17 18 19 20 21 22 23 24 25 26 27 28
000
ASUS44 KOHX 290410
RWROHX
MIDDLE TENNESSEE HOURLY WEATHER ROUNDUP
NATIONAL WEATHER SERVICE NASHVILLE TN
1100 PM CDT SUN AUG 28 2016

NOTE: "FAIR" INDICATES FEW OR NO CLOUDS BELOW 12,000 FEET WITH
NO SIGNIFICANT WEATHER AND/OR OBSTRUCTIONS TO VISIBILITY.

* THESE REPORTS ARE NOT UNDER NWS QUALITY CONTROL AND MAY NOT
  REPORT WEATHER SUCH AS PRECIPITATION AND FOG.


TNZ005>011-023>034-057-059-062>066-078-080-290500
...NORTHERN MIDDLE TENNESSEE...

CITY           SKY/WX    TMP DP  RH WIND       PRES   REMARKS
CLARKSVILLE    CLEAR     77  69  76 CALM      30.13F
CROSSVILLE     PTCLDY    69  67  93 NE5       30.22F
NASHVILLE      PTCLDY    78  70  76 SE3       30.13F
WEST NASHVILLE CLEAR     77  70  78 E3        30.12F
SPARTA         CLEAR     72  70  94 CALM      30.15F
$$
TNZ056-058-060-061-075>077-079-093>097-290500
...SOUTHERN MIDDLE TENNESSEE...

CITY           SKY/WX    TMP DP  RH WIND       PRES   REMARKS
COLUMBIA       PTCLDY   N/A N/A N/A CALM      30.12S
FAYETTEVILLE   PTCLDY    75  70  83 NE9       30.13S
MCMINNVILLE    CLEAR     72  72 100 NE3       30.16S
SHELBYVILLE    CLEAR     75  73  94 E3        30.14R
TULLAHOMA      CLEAR     73  70  88 CALM      30.16S
WINCHESTER     CLEAR     72  70  94 CALM      30.14F
$$


...KEY TO REMARKS...
VSB - VISIBILITY IN MILES
WCI - WIND CHILL INDEX
HX  - HEAT INDEX





USA.gov is the U.S. government's official web portal to all federal, state and local government web resources and services.